| time (UTC) | temp F | wind direction | speed MPH | gust MPH | rain 1hr in | rain 24hr in | rain mn in | humidity % | barometer mb |
| 20260510141013 | 48 | 11 | 4.0 | 9.0 | 0.00 | 0.00 | 0.00 | 56 | 1017.1 |
| 20260510140513 | 48 | 38 | 3.0 | 8.0 | 0.00 | 0.00 | 0.00 | 55 | 1017.0 |
| 20260510140032 | 48 | 14 | 4.0 | 8.0 | 0.00 | 0.00 | 0.00 | 55 | 1017.1 |
| 20260510135515 | 48 | 51 | 3.0 | 6.0 | 0.00 | 0.00 | 0.00 | 56 | 1017.1 |
| 20260510135015 | 48 | 32 | 3.0 | 5.0 | 0.00 | 0.00 | 0.00 | 57 | 1017.0 |
| 20260510134534 | 47 | 49 | 2.0 | 9.0 | 0.00 | 0.00 | 0.00 | 57 | 1016.8 |
| 20260510134014 | 47 | 59 | 2.0 | 9.0 | 0.00 | 0.00 | 0.00 | 59 | 1016.7 |
| 20260510133514 | 46 | 40 | 2.0 | 7.0 | 0.00 | 0.00 | 0.00 | 58 | 1016.8 |
| 20260510133033 | 47 | 44 | 3.0 | 7.0 | 0.00 | 0.00 | 0.00 | 57 | 1016.9 |
| 20260510132515 | 47 | 5 | 2.0 | 7.0 | 0.00 | 0.00 | 0.00 | 58 | 1016.8 |
| 20260510132017 | 46 | 27 | 4.0 | 7.0 | 0.00 | 0.00 | 0.00 | 57 | 1016.8 |
| 20260510131533 | 46 | 36 | 2.0 | 6.0 | 0.00 | 0.00 | 0.00 | 57 | 1016.7 |
| 20260510131013 | 46 | 22 | 2.0 | 6.0 | 0.00 | 0.00 | 0.00 | 58 | 1016.6 |
| 20260510130512 | 46 | 5 | 2.0 | 5.0 | 0.00 | 0.00 | 0.00 | 59 | 1016.6 |
| 20260510130044 | 46 | 286 | 2.0 | 5.0 | 0.00 | 0.00 | 0.00 | 59 | 1016.5 |
| 20260510125515 | 45 | 61 | 0.0 | 4.0 | 0.00 | 0.00 | 0.00 | 60 | 1016.5 |
| 20260510125020 | 45 | 23 | 0.0 | 3.0 | 0.00 | 0.00 | 0.00 | 61 | 1016.4 |
| 20260510124536 | 45 | 0 | 1.0 | 3.0 | 0.00 | 0.00 | 0.00 | 59 | 1016.4 |
| 20260510124014 | 45 | 29 | 0.0 | 2.0 | 0.00 | 0.00 | 0.00 | 62 | 1016.3 |
| 20260510123514 | 44 | 0 | 0.0 | 1.0 | 0.00 | 0.00 | 0.00 | 62 | 1016.3 |
| 20260510123030 | 44 | 0 | 0.0 | 1.0 | 0.00 | 0.00 | 0.00 | 61 | 1016.2 |
| 20260510122514 | 44 | 0 | 0.0 | 1.0 | 0.00 | 0.00 | 0.00 | 61 | 1016.2 |
| 20260510122013 | 44 | 0 | 0.0 | 0.0 | 0.00 | 0.00 | 0.00 | 61 | 1016.2 |
| 20260510121535 | 44 | 0 | 0.0 | 0.0 | 0.00 | 0.00 | 0.00 | 63 | 1016.1 |
| 20260510121013 | 44 | 0 | 0.0 | 0.0 | 0.00 | 0.00 | 0.00 | 62 | 1016.1 |
| 20260510120514 | 44 | 0 | 0.0 | 0.0 | 0.00 | 0.00 | 0.00 | 61 | 1015.9 |
| 20260510120033 | 44 | 0 | 0.0 | 0.0 | 0.00 | 0.00 | 0.00 | 62 | 1016.0 |
| 20260510115513 | 44 | 0 | 0.0 | 1.0 | 0.00 | 0.00 | 0.00 | 62 | 1015.9 |
| 20260510115014 | 44 | 0 | 0.0 | 1.0 | 0.00 | 0.00 | 0.00 | 61 | 1015.7 |
| 20260510114532 | 44 | 0 | 0.0 | 1.0 | 0.00 | 0.00 | 0.00 | 61 | 1015.7 |
| 20260510114013 | 44 | 0 | 0.0 | 1.0 | 0.00 | 0.00 | 0.00 | 61 | 1015.6 |
| 20260510113512 | 44 | 0 | 0.0 | 1.0 | 0.00 | 0.00 | 0.00 | 61 | 1015.6 |
| 20260510113038 | 44 | 0 | 0.0 | 2.0 | 0.00 | 0.00 | 0.00 | 61 | 1015.5 |
| 20260510112518 | 44 | 0 | 0.0 | 2.0 | 0.00 | 0.00 | 0.00 | 60 | 1015.5 |
| 20260510112013 | 44 | 0 | 0.0 | 2.0 | 0.00 | 0.00 | 0.00 | 60 | 1015.4 |
| 20260510111530 | 44 | 0 | 1.0 | 3.0 | 0.00 | 0.00 | 0.00 | 60 | 1015.3 |
| 20260510111014 | 44 | 29 | 1.0 | 3.0 | 0.00 | 0.00 | 0.00 | 59 | 1015.1 |
| 20260510110514 | 44 | 29 | 0.0 | 3.0 | 0.00 | 0.00 | 0.00 | 59 | 1015.0 |
| 20260510110040 | 44 | 0 | 0.0 | 3.0 | 0.00 | 0.00 | 0.00 | 59 | 1015.1 |
| 20260510105514 | 44 | 38 | 1.0 | 3.0 | 0.00 | 0.00 | 0.00 | 59 | 1015.1 |
| 20260510105015 | 44 | 0 | 0.0 | 3.0 | 0.00 | 0.00 | 0.00 | 60 | 1015.2 |
| 20260510104534 | 44 | 36 | 1.0 | 3.0 | 0.00 | 0.00 | 0.00 | 59 | 1015.1 |
| 20260510104016 | 44 | 0 | 0.0 | 3.0 | 0.00 | 0.00 | 0.00 | 59 | 1015.0 |
| 20260510103513 | 44 | 35 | 1.0 | 3.0 | 0.00 | 0.00 | 0.00 | 59 | 1014.6 |
| 20260510103032 | 44 | 0 | 0.0 | 2.0 | 0.00 | 0.00 | 0.00 | 60 | 1014.8 |
| 20260510102513 | 44 | 42 | 0.0 | 1.0 | 0.00 | 0.00 | 0.00 | 61 | 1014.6 |
| 20260510102012 | 44 | 0 | 0.0 | 1.0 | 0.00 | 0.00 | 0.00 | 61 | 1014.6 |
| 20260510101534 | 44 | 0 | 0.0 | 1.0 | 0.00 | 0.00 | 0.00 | 62 | 1014.5 |
| 20260510101014 | 44 | 42 | 0.0 | 2.0 | 0.00 | 0.00 | 0.00 | 63 | 1014.4 |
| 20260510100517 | 44 | 0 | 0.0 | 3.0 | 0.00 | 0.00 | 0.00 | 64 | 1014.2 |
| 20260510100031 | 44 | 0 | 1.0 | 4.0 | 0.00 | 0.00 | 0.00 | 65 | 1014.2 |
| 20260510095518 | 44 | 28 | 1.0 | 4.0 | 0.00 | 0.00 | 0.00 | 65 | 1014.1 |
| 20260510095013 | 44 | 286 | 0.0 | 2.0 | 0.00 | 0.00 | 0.00 | 65 | 1013.9 |
| 20260510094530 | 44 | 285 | 1.0 | 2.0 | 0.00 | 0.00 | 0.00 | 64 | 1013.6 |
| 20260510094012 | 44 | 0 | 0.0 | 2.0 | 0.00 | 0.00 | 0.00 | 62 | 1013.6 |
| 20260510093515 | 44 | 285 | 0.0 | 1.0 | 0.00 | 0.00 | 0.00 | 62 | 1013.5 |
| 20260510093034 | 44 | 0 | 0.0 | 1.0 | 0.00 | 0.00 | 0.00 | 63 | 1013.5 |
| 20260510092518 | 44 | 0 | 0.0 | 2.0 | 0.00 | 0.00 | 0.00 | 65 | 1013.5 |
| 20260510092015 | 44 | 285 | 1.0 | 2.0 | 0.00 | 0.00 | 0.00 | 69 | 1013.5 |
| 20260510091536 | 44 | 285 | 0.0 | 2.0 | 0.00 | 0.00 | 0.00 | 68 | 1013.4 |
| 20260510091017 | 44 | 0 | 0.0 | 0.0 | 0.00 | 0.00 | 0.00 | 63 | 1013.4 |
| 20260510090514 | 44 | 0 | 0.0 | 0.0 | 0.00 | 0.00 | 0.00 | 67 | 1013.4 |
| 20260510090035 | 44 | 0 | 0.0 | 0.0 | 0.00 | 0.00 | 0.00 | 63 | 1013.2 |
| 20260510085516 | 44 | 0 | 0.0 | 1.0 | 0.00 | 0.01 | 0.00 | 65 | 1013.2 |
| 20260510085013 | 44 | 0 | 0.0 | 1.0 | 0.00 | 0.01 | 0.00 | 65 | 1013.2 |
| 20260510084535 | 44 | 286 | 0.0 | 1.0 | 0.00 | 0.01 | 0.00 | 62 | 1013.2 |
| 20260510084017 | 44 | 0 | 0.0 | 1.0 | 0.00 | 0.01 | 0.00 | 60 | 1013.3 |
| 20260510083515 | 44 | 286 | 0.0 | 1.0 | 0.00 | 0.01 | 0.00 | 61 | 1013.2 |
| 20260510083034 | 44 | 0 | 0.0 | 2.0 | 0.00 | 0.01 | 0.00 | 59 | 1012.9 |
| 20260510082515 | 45 | 286 | 1.0 | 2.0 | 0.00 | 0.01 | 0.00 | 62 | 1013.0 |
| 20260510082016 | 45 | 286 | 0.0 | 2.0 | 0.00 | 0.01 | 0.00 | 60 | 1013.0 |
| 20260510081536 | 45 | 286 | 0.0 | 1.0 | 0.00 | 0.01 | 0.00 | 57 | 1013.0 |
| 20260510081016 | 45 | 0 | 0.0 | 1.0 | 0.00 | 0.01 | 0.00 | 57 | 1012.9 |
| 20260510080516 | 45 | 0 | 0.0 | 0.0 | 0.00 | 0.01 | 0.00 | 57 | 1013.0 |
| 20260510080031 | 45 | 0 | 0.0 | 1.0 | 0.00 | 0.01 | 0.00 | 58 | 1013.0 |
| 20260510075515 | 45 | 0 | 0.0 | 2.0 | 0.00 | 0.01 | 0.00 | 62 | 1013.0 |
| 20260510075016 | 45 | 286 | 0.0 | 2.0 | 0.00 | 0.01 | 0.00 | 60 | 1012.9 |
| 20260510074533 | 45 | 286 | 0.0 | 2.0 | 0.00 | 0.01 | 0.00 | 57 | 1012.8 |
| 20260510074020 | 45 | 286 | 0.0 | 3.0 | 0.00 | 0.01 | 0.00 | 57 | 1012.8 |
| 20260510073521 | 45 | 286 | 1.0 | 3.0 | 0.00 | 0.01 | 0.00 | 57 | 1012.9 |
| 20260510073033 | 45 | 286 | 1.0 | 3.0 | 0.00 | 0.01 | 0.00 | 57 | 1012.8 |
| 20260510072514 | 45 | 286 | 1.0 | 3.0 | 0.00 | 0.01 | 0.00 | 57 | 1012.9 |
| 20260510072017 | 44 | 286 | 1.0 | 3.0 | 0.00 | 0.01 | 0.00 | 57 | 1012.9 |
| 20260510071531 | 44 | 286 | 2.0 | 3.0 | 0.00 | 0.01 | 0.00 | 58 | 1012.9 |
| 20260510071015 | 44 | 299 | 1.0 | 3.0 | 0.00 | 0.01 | 0.00 | 59 | 1012.8 |
| 20260510070516 | 43 | 299 | 0.0 | 2.0 | 0.00 | 0.01 | 0.00 | 60 | 1012.9 |
| 20260510070037 | 43 | 299 | 0.0 | 2.0 | 0.00 | 0.01 | 0.00 | 61 | 1012.8 |
| 20260510065515 | 43 | 299 | 0.0 | 3.0 | 0.00 | 0.01 | 0.00 | 63 | 1012.8 |
| 20260510065019 | 43 | 299 | 1.0 | 3.0 | 0.00 | 0.01 | 0.00 | 65 | 1012.9 |
| 20260510064538 | 43 | 299 | 1.0 | 3.0 | 0.00 | 0.01 | 0.00 | 68 | 1012.8 |
| 20260510064014 | 43 | 299 | 1.0 | 3.0 | 0.00 | 0.01 | 0.00 | 70 | 1012.8 |
| 20260510063518 | 43 | 303 | 1.0 | 3.0 | 0.00 | 0.01 | 0.00 | 65 | 1012.8 |
| 20260510063034 | 43 | 303 | 0.0 | 2.0 | 0.00 | 0.01 | 0.00 | 59 | 1012.8 |
| 20260510062517 | 43 | 0 | 0.0 | 2.0 | 0.00 | 0.01 | 0.00 | 59 | 1012.8 |
| 20260510062017 | 43 | 0 | 0.0 | 2.0 | 0.00 | 0.01 | 0.00 | 58 | 1012.9 |
| 20260510061533 | 44 | 303 | 0.0 | 2.0 | 0.00 | 0.01 | 0.00 | 60 | 1012.8 |
| 20260510061014 | 44 | 0 | 0.0 | 2.0 | 0.00 | 0.01 | 0.00 | 57 | 1012.8 |
| 20260510060512 | 44 | 0 | 0.0 | 2.0 | 0.00 | 0.01 | 0.00 | 57 | 1012.7 |
| 20260510060036 | 44 | 303 | 1.0 | 2.0 | 0.00 | 0.01 | 0.00 | 58 | 1012.7 |
| 20260510055513 | 45 | 0 | 1.0 | 2.0 | 0.00 | 0.01 | 0.00 | 60 | 1012.5 |
| 20260510055013 | 45 | 303 | 0.0 | 1.0 | 0.00 | 0.01 | 0.00 | 57 | 1012.5 |
| 20260510054532 | 45 | 0 | 0.0 | 2.0 | 0.00 | 0.01 | 0.00 | 59 | 1012.4 |
| 20260510054016 | 45 | 0 | 0.0 | 2.0 | 0.00 | 0.01 | 0.00 | 60 | 1012.5 |
| 20260510053515 | 45 | 303 | 1.0 | 2.0 | 0.00 | 0.01 | 0.00 | 60 | 1012.7 |
| 20260510053034 | 45 | 303 | 1.0 | 3.0 | 0.00 | 0.01 | 0.00 | 61 | 1012.6 |
| 20260510052511 | 45 | 303 | 0.0 | 3.0 | 0.00 | 0.01 | 0.00 | 61 | 1012.7 |
| 20260510052017 | 46 | 303 | 1.0 | 3.0 | 0.00 | 0.01 | 0.00 | 66 | 1012.5 |
| 20260510051530 | 46 | 0 | 1.0 | 2.0 | 0.00 | 0.01 | 0.00 | 63 | 1012.5 |
| 20260510051014 | 46 | 303 | 0.0 | 2.0 | 0.00 | 0.01 | 0.00 | 57 | 1012.6 |
| 20260510050514 | 45 | 303 | 1.0 | 2.0 | 0.00 | 0.01 | 0.00 | 57 | 1012.5 |
| 20260510050033 | 45 | 303 | 0.0 | 2.0 | 0.00 | 0.01 | 0.00 | 58 | 1012.5 |
| 20260510045519 | 45 | 303 | 1.0 | 3.0 | 0.00 | 0.01 | 0.01 | 63 | 1012.5 |
| 20260510045015 | 45 | 303 | 1.0 | 3.0 | 0.00 | 0.01 | 0.01 | 66 | 1012.6 |
| 20260510044532 | 46 | 0 | 0.0 | 0.0 | 0.00 | 0.01 | 0.01 | 65 | 1012.4 |
| 20260510044011 | 46 | 0 | 0.0 | 0.0 | 0.00 | 0.01 | 0.01 | 60 | 1012.5 |
| 20260510043513 | 46 | 0 | 0.0 | 0.0 | 0.00 | 0.01 | 0.01 | 55 | 1012.5 |
| 20260510043034 | 46 | 0 | 0.0 | 0.0 | 0.00 | 0.01 | 0.01 | 56 | 1012.6 |
| 20260510042513 | 45 | 0 | 0.0 | 0.0 | 0.00 | 0.01 | 0.01 | 56 | 1012.5 |
| 20260510042015 | 45 | 0 | 0.0 | 0.0 | 0.00 | 0.01 | 0.01 | 55 | 1012.5 |
| 20260510041536 | 45 | 0 | 0.0 | 0.0 | 0.00 | 0.01 | 0.01 | 54 | 1012.4 |
| 20260510041011 | 45 | 0 | 0.0 | 1.0 | 0.00 | 0.01 | 0.01 | 57 | 1012.4 |
| 20260510040514 | 45 | 0 | 0.0 | 3.0 | 0.00 | 0.01 | 0.01 | 60 | 1012.2 |
| 20260510040032 | 45 | 308 | 1.0 | 3.0 | 0.00 | 0.01 | 0.01 | 65 | 1012.3 |
| 20260510035514 | 45 | 308 | 0.0 | 2.0 | 0.00 | 0.01 | 0.01 | 66 | 1012.2 |
| 20260510035014 | 45 | 0 | 0.0 | 2.0 | 0.00 | 0.01 | 0.01 | 64 | 1012.4 |
| 20260510034532 | 45 | 308 | 1.0 | 2.0 | 0.00 | 0.01 | 0.01 | 65 | 1012.5 |
| 20260510034015 | 45 | 308 | 1.0 | 2.0 | 0.00 | 0.01 | 0.01 | 64 | 1012.4 |
| 20260510033515 | 45 | 308 | 1.0 | 2.0 | 0.00 | 0.01 | 0.01 | 63 | 1012.4 |
| 20260510033038 | 45 | 308 | 1.0 | 2.0 | 0.00 | 0.01 | 0.01 | 59 | 1012.3 |
| 20260510032513 | 45 | 308 | 1.0 | 2.0 | 0.00 | 0.01 | 0.01 | 59 | 1012.5 |
| 20260510032013 | 45 | 308 | 1.0 | 2.0 | 0.00 | 0.01 | 0.01 | 61 | 1012.4 |
| 20260510031534 | 46 | 0 | 0.0 | 2.0 | 0.00 | 0.01 | 0.01 | 57 | 1012.3 |
| 20260510031015 | 46 | 308 | 1.0 | 2.0 | 0.00 | 0.01 | 0.01 | 56 | 1012.2 |
| 20260510030513 | 47 | 308 | 1.0 | 2.0 | 0.00 | 0.01 | 0.01 | 52 | 1012.1 |
| 20260510030033 | 47 | 308 | 0.0 | 1.0 | 0.00 | 0.01 | 0.01 | 56 | 1012.1 |
| 20260510025511 | 47 | 0 | 0.0 | 1.0 | 0.00 | 0.01 | 0.01 | 50 | 1012.2 |
| 20260510025014 | 48 | 0 | 0.0 | 1.0 | 0.00 | 0.01 | 0.01 | 50 | 1012.1 |
| 20260510024532 | 48 | 0 | 0.0 | 2.0 | 0.00 | 0.01 | 0.01 | 50 | 1012.0 |
| 20260510024012 | 48 | 308 | 0.0 | 2.0 | 0.00 | 0.01 | 0.01 | 54 | 1011.9 |
| 20260510023517 | 49 | 308 | 0.0 | 2.0 | 0.00 | 0.01 | 0.01 | 50 | 1011.8 |
| 20260510023032 | 49 | 308 | 0.0 | 2.0 | 0.00 | 0.01 | 0.01 | 45 | 1011.6 |
| 20260510022515 | 49 | 0 | 0.0 | 1.0 | 0.00 | 0.01 | 0.01 | 44 | 1011.7 |
| 20260510022014 | 50 | 0 | 0.0 | 1.0 | 0.00 | 0.01 | 0.01 | 43 | 1011.5 |
| 20260510021532 | 50 | 0 | 0.0 | 1.0 | 0.00 | 0.01 | 0.01 | 43 | 1011.4 |
| 20260510021011 | 50 | 0 | 0.0 | 2.0 | 0.00 | 0.01 | 0.01 | 42 | 1011.3 |
| 20260510020515 | 51 | 0 | 0.0 | 2.0 | 0.00 | 0.01 | 0.01 | 42 | 1011.2 |
| 20260510020032 | 51 | 308 | 1.0 | 3.0 | 0.00 | 0.01 | 0.01 | 41 | 1011.1 |
| 20260510015515 | 51 | 308 | 1.0 | 3.0 | 0.00 | 0.01 | 0.01 | 40 | 1011.0 |
| 20260510015014 | 51 | 308 | 1.0 | 3.0 | 0.00 | 0.01 | 0.01 | 40 | 1010.9 |
| 20260510014535 | 52 | 308 | 1.0 | 3.0 | 0.00 | 0.01 | 0.01 | 40 | 1010.9 |
| 20260510014013 | 52 | 0 | 0.0 | 3.0 | 0.00 | 0.01 | 0.01 | 39 | 1010.7 |
| 20260510013517 | 52 | 0 | 0.0 | 3.0 | 0.00 | 0.01 | 0.01 | 39 | 1010.6 |
| 20260510013034 | 52 | 312 | 1.0 | 3.0 | 0.00 | 0.01 | 0.01 | 38 | 1010.4 |
| 20260510012512 | 53 | 314 | 0.0 | 3.0 | 0.00 | 0.01 | 0.01 | 39 | 1010.6 |
| 20260510012015 | 53 | 313 | 0.0 | 4.0 | 0.00 | 0.01 | 0.01 | 38 | 1010.3 |
| 20260510011532 | 53 | 314 | 1.0 | 4.0 | 0.00 | 0.01 | 0.01 | 37 | 1010.2 |
| 20260510011012 | 53 | 279 | 1.0 | 4.0 | 0.00 | 0.01 | 0.01 | 37 | 1010.2 |
| 20260510010515 | 54 | 290 | 0.0 | 7.0 | 0.00 | 0.01 | 0.01 | 36 | 1010.1 |
| 20260510010032 | 54 | 0 | 1.0 | 7.0 | 0.00 | 0.01 | 0.01 | 36 | 1010.1 |
| 20260510005512 | 54 | 326 | 0.0 | 3.0 | 0.00 | 0.01 | 0.01 | 37 | 1010.1 |
| 20260510005018 | 54 | 329 | 0.0 | 3.0 | 0.00 | 0.01 | 0.01 | 35 | 1010.1 |
| 20260510004532 | 54 | 317 | 1.0 | 4.0 | 0.00 | 0.01 | 0.01 | 35 | 1010.0 |
| 20260510004011 | 55 | 315 | 1.0 | 8.0 | 0.00 | 0.01 | 0.01 | 35 | 1009.9 |
| 20260510003515 | 55 | 300 | 1.0 | 8.0 | 0.00 | 0.01 | 0.01 | 35 | 1009.9 |
| 20260510003033 | 55 | 295 | 1.0 | 5.0 | 0.00 | 0.01 | 0.01 | 37 | 1009.8 |
| 20260510002513 | 55 | 309 | 1.0 | 4.0 | 0.00 | 0.01 | 0.01 | 35 | 1009.6 |
| 20260510002013 | 56 | 303 | 1.0 | 4.0 | 0.00 | 0.01 | 0.01 | 35 | 1009.8 |
| 20260510001531 | 56 | 336 | 1.0 | 4.0 | 0.00 | 0.01 | 0.01 | 35 | 1009.7 |
| 20260510001014 | 56 | 322 | 1.0 | 6.0 | 0.00 | 0.01 | 0.01 | 35 | 1009.6 |
| 20260510000514 | 56 | 336 | 1.0 | 6.0 | 0.00 | 0.01 | 0.01 | 34 | 1009.6 |
| 20260510000037 | 56 | 49 | 1.0 | 6.0 | 0.00 | 0.01 | 0.01 | 33 | 1009.6 |
| 20260509235513 | 56 | 5 | 1.0 | 5.0 | 0.00 | 0.01 | 0.01 | 35 | 1009.5 |
| 20260509235015 | 56 | 329 | 2.0 | 9.0 | 0.00 | 0.01 | 0.01 | 35 | 1009.4 |
| 20260509234541 | 56 | 296 | 1.0 | 11.0 | 0.00 | 0.01 | 0.01 | 34 | 1009.2 |
| 20260509234017 | 57 | 296 | 5.0 | 11.0 | 0.00 | 0.01 | 0.01 | 33 | 1009.2 |
| 20260509233514 | 57 | 269 | 1.0 | 7.0 | 0.00 | 0.01 | 0.01 | 35 | 1009.0 |
| 20260509233037 | 57 | 282 | 2.0 | 7.0 | 0.00 | 0.01 | 0.01 | 33 | 1009.0 |
| 20260509232515 | 57 | 294 | 3.0 | 7.0 | 0.00 | 0.01 | 0.01 | 34 | 1009.0 |
| 20260509232019 | 57 | 337 | 2.0 | 8.0 | 0.00 | 0.01 | 0.01 | 34 | 1008.9 |
| 20260509231533 | 57 | 333 | 2.0 | 11.0 | 0.00 | 0.01 | 0.01 | 34 | 1008.9 |
| 20260509231014 | 57 | 346 | 4.0 | 11.0 | 0.00 | 0.01 | 0.01 | 33 | 1008.9 |
| 20260509230515 | 57 | 316 | 2.0 | 7.0 | 0.00 | 0.01 | 0.01 | 34 | 1008.9 |
| 20260509230037 | 57 | 315 | 3.0 | 9.0 | 0.00 | 0.01 | 0.01 | 33 | 1008.9 |
| 20260509225516 | 58 | 306 | 2.0 | 9.0 | 0.00 | 0.01 | 0.01 | 34 | 1008.9 |
| 20260509225015 | 57 | 333 | 1.0 | 6.0 | 0.00 | 0.01 | 0.01 | 35 | 1008.8 |
| 20260509224545 | 57 | 285 | 2.0 | 11.0 | 0.00 | 0.01 | 0.01 | 34 | 1008.6 |
| 20260509224016 | 57 | 276 | 4.0 | 11.0 | 0.00 | 0.01 | 0.01 | 34 | 1008.3 |
| 20260509223517 | 57 | 344 | 3.0 | 8.0 | 0.00 | 0.01 | 0.01 | 34 | 1008.4 |
| 20260509223033 | 58 | 329 | 3.0 | 8.0 | 0.00 | 0.01 | 0.01 | 34 | 1008.6 |
| 20260509222514 | 58 | 270 | 1.0 | 7.0 | 0.00 | 0.01 | 0.01 | 34 | 1008.4 |
| 20260509222013 | 58 | 317 | 2.0 | 8.0 | 0.00 | 0.01 | 0.01 | 35 | 1008.7 |
| 20260509221533 | 58 | 310 | 2.0 | 10.0 | 0.00 | 0.01 | 0.01 | 36 | 1008.6 |
| 20260509221014 | 58 | 55 | 1.0 | 13.0 | 0.00 | 0.01 | 0.01 | 36 | 1008.4 |
| 20260509220515 | 58 | 22 | 3.0 | 13.0 | 0.00 | 0.01 | 0.01 | 35 | 1008.3 |
| 20260509220033 | 58 | 282 | 1.0 | 11.0 | 0.00 | 0.01 | 0.01 | 35 | 1008.2 |
| 20260509215515 | 58 | 280 | 2.0 | 8.0 | 0.00 | 0.01 | 0.01 | 36 | 1008.3 |
| 20260509215015 | 58 | 32 | 2.0 | 8.0 | 0.00 | 0.01 | 0.01 | 36 | 1008.3 |
| 20260509214535 | 58 | 71 | 1.0 | 7.0 | 0.00 | 0.01 | 0.01 | 36 | 1008.4 |
| 20260509214020 | 58 | 0 | 3.0 | 8.0 | 0.00 | 0.01 | 0.01 | 35 | 1008.3 |
| 20260509213517 | 58 | 341 | 3.0 | 8.0 | 0.00 | 0.01 | 0.01 | 34 | 1008.3 |
| 20260509213034 | 58 | 309 | 2.0 | 6.0 | 0.00 | 0.01 | 0.01 | 36 | 1008.2 |
| 20260509212514 | 58 | 298 | 2.0 | 6.0 | 0.00 | 0.01 | 0.01 | 38 | 1008.1 |
| 20260509212018 | 58 | 324 | 2.0 | 9.0 | 0.00 | 0.01 | 0.01 | 36 | 1008.0 |
| 20260509211534 | 58 | 315 | 3.0 | 9.0 | 0.00 | 0.01 | 0.01 | 37 | 1008.0 |
| 20260509211016 | 58 | 340 | 3.0 | 9.0 | 0.00 | 0.01 | 0.01 | 36 | 1008.0 |
| 20260509210514 | 58 | 314 | 3.0 | 9.0 | 0.00 | 0.01 | 0.01 | 36 | 1008.0 |
| 20260509210031 | 58 | 267 | 3.0 | 9.0 | 0.00 | 0.01 | 0.01 | 34 | 1007.9 |
| 20260509205514 | 58 | 298 | 3.0 | 8.0 | 0.00 | 0.01 | 0.01 | 35 | 1007.7 |
| 20260509205015 | 58 | 348 | 1.0 | 9.0 | 0.00 | 0.01 | 0.01 | 39 | 1007.8 |
| 20260509204533 | 58 | 94 | 2.0 | 9.0 | 0.00 | 0.01 | 0.01 | 38 | 1007.7 |
| 20260509204017 | 58 | 36 | 3.0 | 9.0 | 0.00 | 0.01 | 0.01 | 34 | 1007.8 |
| 20260509203515 | 58 | 38 | 3.0 | 9.0 | 0.00 | 0.01 | 0.01 | 35 | 1008.1 |
| 20260509203043 | 58 | 5 | 3.0 | 9.0 | 0.00 | 0.01 | 0.01 | 34 | 1008.0 |
| 20260509202515 | 58 | 286 | 2.0 | 9.0 | 0.00 | 0.01 | 0.01 | 36 | 1007.9 |
| 20260509202016 | 58 | 344 | 2.0 | 9.0 | 0.00 | 0.01 | 0.01 | 37 | 1007.8 |
| 20260509201534 | 58 | 28 | 1.0 | 11.0 | 0.00 | 0.01 | 0.01 | 36 | 1007.8 |
| 20260509201017 | 58 | 49 | 5.0 | 11.0 | 0.00 | 0.01 | 0.01 | 33 | 1007.8 |
| 20260509200516 | 59 | 65 | 2.0 | 8.0 | 0.00 | 0.01 | 0.01 | 35 | 1007.8 |
| 20260509200035 | 59 | 313 | 1.0 | 5.0 | 0.00 | 0.01 | 0.01 | 34 | 1007.9 |
| 20260509195517 | 58 | 259 | 2.0 | 9.0 | 0.00 | 0.01 | 0.01 | 38 | 1007.6 |
| 20260509195013 | 58 | 296 | 3.0 | 9.0 | 0.00 | 0.01 | 0.01 | 40 | 1007.7 |
| 20260509194533 | 58 | 30 | 2.0 | 8.0 | 0.00 | 0.01 | 0.01 | 38 | 1007.8 |
| 20260509194015 | 58 | 284 | 3.0 | 8.0 | 0.00 | 0.01 | 0.01 | 34 | 1007.6 |
| 20260509193514 | 58 | 155 | 3.0 | 7.0 | 0.00 | 0.01 | 0.01 | 38 | 1007.6 |
| 20260509193032 | 58 | 184 | 2.0 | 8.0 | 0.00 | 0.01 | 0.01 | 37 | 1007.5 |
| 20260509192515 | 58 | 12 | 3.0 | 8.0 | 0.00 | 0.01 | 0.01 | 38 | 1007.6 |
| 20260509192013 | 58 | 74 | 3.0 | 13.0 | 0.00 | 0.01 | 0.01 | 39 | 1007.5 |
| 20260509191534 | 57 | 31 | 2.0 | 13.0 | 0.00 | 0.01 | 0.01 | 39 | 1007.2 |
| 20260509191014 | 57 | 30 | 3.0 | 7.0 | 0.00 | 0.01 | 0.01 | 39 | 1007.4 |
| 20260509190514 | 57 | 300 | 3.0 | 8.0 | 0.00 | 0.01 | 0.01 | 39 | 1007.2 |
| 20260509190034 | 57 | 318 | 3.0 | 9.0 | 0.00 | 0.01 | 0.01 | 37 | 1007.1 |
| 20260509185516 | 57 | 199 | 2.0 | 9.0 | 0.00 | 0.01 | 0.01 | 40 | 1007.2 |
| 20260509185014 | 58 | 49 | 2.0 | 7.0 | 0.00 | 0.01 | 0.01 | 40 | 1007.2 |
| 20260509184543 | 58 | 76 | 2.0 | 7.0 | 0.00 | 0.01 | 0.01 | 42 | 1007.1 |
| 20260509184015 | 57 | 0 | 2.0 | 8.0 | 0.00 | 0.01 | 0.01 | 41 | 1007.2 |
| 20260509183514 | 57 | 304 | 2.0 | 8.0 | 0.00 | 0.01 | 0.01 | 39 | 1007.1 |
| 20260509183033 | 57 | 42 | 2.0 | 6.0 | 0.00 | 0.01 | 0.01 | 39 | 1007.0 |
| 20260509182515 | 57 | 351 | 2.0 | 11.0 | 0.00 | 0.01 | 0.01 | 38 | 1007.2 |
| 20260509182015 | 57 | 298 | 3.0 | 11.0 | 0.00 | 0.01 | 0.01 | 38 | 1007.1 |
| 20260509181533 | 57 | 342 | 4.0 | 11.0 | 0.00 | 0.01 | 0.01 | 40 | 1006.9 |
| 20260509181015 | 56 | 5 | 2.0 | 11.0 | 0.00 | 0.01 | 0.01 | 39 | 1006.8 |
| 20260509180515 | 56 | 296 | 3.0 | 9.0 | 0.00 | 0.01 | 0.01 | 44 | 1006.9 |
| 20260509180053 | 56 | 331 | 2.0 | 9.0 | 0.00 | 0.01 | 0.01 | 41 | 1007.0 |
| 20260509175515 | 56 | 28 | 3.0 | 9.0 | 0.00 | 0.01 | 0.01 | 39 | 1006.9 |
| 20260509175014 | 56 | 214 | 2.0 | 12.0 | 0.00 | 0.01 | 0.01 | 38 | 1006.9 |
| 20260509174532 | 56 | 300 | 2.0 | 12.0 | 0.00 | 0.01 | 0.01 | 41 | 1006.9 |
| 20260509174016 | 56 | 278 | 3.0 | 9.0 | 0.00 | 0.01 | 0.01 | 39 | 1006.8 |
| 20260509173513 | 56 | 159 | 3.0 | 9.0 | 0.00 | 0.01 | 0.01 | 40 | 1006.9 |
| 20260509173040 | 56 | 309 | 2.0 | 11.0 | 0.00 | 0.01 | 0.01 | 44 | 1007.0 |
| 20260509172520 | 55 | 18 | 4.0 | 11.0 | 0.00 | 0.01 | 0.01 | 42 | 1007.1 |
| 20260509172015 | 55 | 254 | 3.0 | 8.0 | 0.00 | 0.01 | 0.01 | 42 | 1007.0 |
| 20260509171543 | 55 | 299 | 2.0 | 8.0 | 0.00 | 0.01 | 0.01 | 46 | 1006.9 |
| 20260509171015 | 55 | 296 | 3.0 | 10.0 | 0.00 | 0.01 | 0.01 | 44 | 1006.6 |
| 20260509170515 | 55 | 331 | 4.0 | 10.0 | 0.00 | 0.01 | 0.01 | 43 | 1006.7 |
| 20260509170046 | 56 | 320 | 2.0 | 8.0 | 0.00 | 0.01 | 0.01 | 43 | 1006.8 |
| 20260509165518 | 56 | 15 | 2.0 | 7.0 | 0.00 | 0.01 | 0.01 | 44 | 1006.7 |
| 20260509165013 | 55 | 298 | 2.0 | 8.0 | 0.00 | 0.01 | 0.01 | 44 | 1006.5 |
| 20260509164531 | 55 | 333 | 3.0 | 8.0 | 0.00 | 0.01 | 0.01 | 44 | 1006.5 |
| 20260509164013 | 55 | 87 | 2.0 | 9.0 | 0.00 | 0.01 | 0.01 | 46 | 1006.5 |
| 20260509163516 | 55 | 31 | 3.0 | 14.0 | 0.00 | 0.01 | 0.01 | 45 | 1006.4 |
| 20260509163031 | 54 | 336 | 2.0 | 14.0 | 0.00 | 0.01 | 0.01 | 46 | 1006.4 |
| 20260509162512 | 55 | 232 | 2.0 | 5.0 | 0.00 | 0.01 | 0.01 | 46 | 1006.3 |
| 20260509162017 | 54 | 293 | 2.0 | 10.0 | 0.00 | 0.01 | 0.01 | 45 | 1006.3 |
| 20260509161541 | 54 | 323 | 5.0 | 10.0 | 0.00 | 0.01 | 0.01 | 43 | 1006.2 |
| 20260509161015 | 54 | 35 | 1.0 | 6.0 | 0.00 | 0.01 | 0.01 | 47 | 1006.1 |
| 20260509160514 | 54 | 323 | 2.0 | 8.0 | 0.00 | 0.01 | 0.01 | 47 | 1006.1 |
| 20260509160035 | 54 | 333 | 2.0 | 11.0 | 0.00 | 0.01 | 0.01 | 44 | 1005.9 |
| 20260509155513 | 54 | 57 | 2.0 | 11.0 | 0.00 | 0.01 | 0.01 | 48 | 1005.9 |
| 20260509155013 | 54 | 244 | 2.0 | 10.0 | 0.00 | 0.01 | 0.01 | 49 | 1005.9 |
| 20260509154532 | 54 | 309 | 2.0 | 9.0 | 0.00 | 0.01 | 0.01 | 48 | 1005.9 |
| 20260509154013 | 54 | 87 | 2.0 | 6.0 | 0.00 | 0.01 | 0.01 | 48 | 1005.8 |
| 20260509153515 | 53 | 33 | 1.0 | 6.0 | 0.00 | 0.01 | 0.01 | 49 | 1005.9 |
| 20260509153033 | 53 | 360 | 2.0 | 7.0 | 0.00 | 0.01 | 0.01 | 49 | 1005.6 |
| 20260509152513 | 53 | 59 | 2.0 | 7.0 | 0.00 | 0.01 | 0.01 | 48 | 1005.5 |
| 20260509152017 | 53 | 327 | 3.0 | 7.0 | 0.00 | 0.01 | 0.01 | 50 | 1005.3 |
| 20260509151532 | 53 | 344 | 2.0 | 9.0 | 0.00 | 0.01 | 0.01 | 51 | 1005.4 |
| 20260509151016 | 52 | 39 | 2.0 | 9.0 | 0.00 | 0.01 | 0.01 | 50 | 1005.4 |
| 20260509150517 | 53 | 148 | 2.0 | 5.0 | 0.00 | 0.01 | 0.01 | 51 | 1005.3 |
| 20260509150032 | 52 | 330 | 1.0 | 6.0 | 0.00 | 0.01 | 0.01 | 52 | 1005.2 |
| 20260509145515 | 52 | 258 | 2.0 | 8.0 | 0.00 | 0.01 | 0.01 | 53 | 1005.3 |
| 20260509145016 | 52 | 316 | 3.0 | 8.0 | 0.00 | 0.01 | 0.01 | 51 | 1005.0 |
| 20260509144533 | 52 | 289 | 3.0 | 9.0 | 0.00 | 0.01 | 0.01 | 52 | 1005.0 |
| 20260509144013 | 52 | 352 | 2.0 | 9.0 | 0.00 | 0.01 | 0.01 | 55 | 1004.9 |
| 20260509143516 | 52 | 317 | 1.0 | 5.0 | 0.00 | 0.01 | 0.01 | 58 | 1004.9 |
| 20260509143035 | 51 | 323 | 1.0 | 5.0 | 0.00 | 0.01 | 0.01 | 59 | 1004.9 |
| 20260509142513 | 51 | 46 | 2.0 | 6.0 | 0.00 | 0.01 | 0.01 | 58 | 1004.8 |
| 20260509142018 | 51 | 294 | 1.0 | 9.0 | 0.00 | 0.01 | 0.01 | 60 | 1004.8 |
| 20260509141542 | 51 | 62 | 3.0 | 10.0 | 0.00 | 0.01 | 0.01 | 59 | 1004.6 |